| time (UTC) | temp F | wind direction | speed MPH | gust MPH | rain 1hr in | rain 24hr in | rain mn in | humidity % | barometer mb |
| 20260509105615 | 53 | 78 | 1.0 | 4.0 | 0.00 | 0.00 | 0.00 | 34 | 1016.7 |
| 20260509104623 | 52 | 76 | 1.0 | 6.0 | 0.00 | 0.00 | 0.00 | 35 | 1016.7 |
| 20260509103613 | 54 | 121 | 2.0 | 6.0 | 0.00 | 0.00 | 0.00 | 32 | 1016.6 |
| 20260509102622 | 56 | 5 | 0.0 | 2.0 | 0.00 | 0.00 | 0.00 | 31 | 1016.5 |
| 20260509101615 | 56 | 5 | 1.0 | 4.0 | 0.00 | 0.00 | 0.00 | 31 | 1016.4 |
| 20260509100624 | 56 | 319 | 2.0 | 5.0 | 0.00 | 0.00 | 0.00 | 32 | 1016.5 |
| 20260509095625 | 57 | 331 | 1.0 | 4.0 | 0.00 | 0.00 | 0.00 | 31 | 1016.3 |
| 20260509094634 | 57 | 344 | 1.0 | 4.0 | 0.00 | 0.00 | 0.00 | 30 | 1016.1 |
| 20260509093627 | 59 | 39 | 3.0 | 9.0 | 0.00 | 0.00 | 0.00 | 28 | 1016.1 |
| 20260509092615 | 60 | 315 | 5.0 | 11.0 | 0.00 | 0.00 | 0.00 | 27 | 1015.8 |
| 20260509091620 | 60 | 340 | 5.0 | 10.0 | 0.00 | 0.00 | 0.00 | 27 | 1015.8 |
| 20260509090626 | 60 | 298 | 6.0 | 10.0 | 0.00 | 0.00 | 0.00 | 27 | 1015.8 |
| 20260509085626 | 59 | 311 | 4.0 | 11.0 | 0.00 | 0.00 | 0.00 | 28 | 1015.9 |
| 20260509084616 | 58 | 271 | 2.0 | 4.0 | 0.00 | 0.00 | 0.00 | 28 | 1015.9 |
| 20260509083625 | 58 | 54 | 0.0 | 4.0 | 0.00 | 0.00 | 0.00 | 27 | 1015.9 |
| 20260509082614 | 60 | 327 | 2.0 | 3.0 | 0.00 | 0.00 | 0.00 | 25 | 1015.9 |
| 20260509081627 | 60 | 331 | 1.0 | 4.0 | 0.00 | 0.00 | 0.00 | 25 | 1015.8 |
| 20260509080617 | 60 | 310 | 1.0 | 7.0 | 0.00 | 0.00 | 0.00 | 25 | 1015.7 |
| 20260509075616 | 61 | 253 | 1.0 | 10.0 | 0.00 | 0.00 | 0.00 | 24 | 1015.5 |
| 20260509074624 | 60 | 302 | 2.0 | 8.0 | 0.00 | 0.00 | 0.00 | 24 | 1015.3 |
| 20260509073618 | 61 | 294 | 1.0 | 4.0 | 0.00 | 0.00 | 0.00 | 24 | 1015.3 |
| 20260509072625 | 62 | 295 | 1.0 | 5.0 | 0.00 | 0.00 | 0.00 | 23 | 1015.3 |
| 20260509071614 | 63 | 337 | 2.0 | 9.0 | 0.00 | 0.00 | 0.00 | 21 | 1015.2 |
| 20260509070628 | 63 | 355 | 1.0 | 4.0 | 0.00 | 0.00 | 0.00 | 22 | 1015.4 |
| 20260509065624 | 64 | 31 | 2.0 | 5.0 | 0.00 | 0.00 | 0.00 | 21 | 1015.6 |
| 20260509064631 | 64 | 309 | 2.0 | 4.0 | 0.00 | 0.00 | 0.00 | 21 | 1015.4 |
| 20260509063618 | 64 | 312 | 3.0 | 11.0 | 0.00 | 0.00 | 0.00 | 20 | 1015.3 |
| 20260509062628 | 64 | 303 | 5.0 | 10.0 | 0.00 | 0.00 | 0.00 | 21 | 1015.4 |
| 20260509061615 | 64 | 292 | 7.0 | 13.0 | 0.00 | 0.00 | 0.00 | 21 | 1015.3 |
| 20260509060626 | 65 | 306 | 6.0 | 17.0 | 0.00 | 0.00 | 0.00 | 20 | 1015.3 |
| 20260509055626 | 65 | 279 | 8.0 | 15.0 | 0.00 | 0.00 | 0.00 | 20 | 1015.1 |
| 20260509054614 | 65 | 317 | 8.0 | 16.0 | 0.00 | 0.00 | 0.00 | 20 | 1015.0 |
| 20260509053621 | 64 | 338 | 4.0 | 10.0 | 0.00 | 0.00 | 0.00 | 22 | 1014.8 |
| 20260509052631 | 63 | 123 | 0.0 | 4.0 | 0.00 | 0.00 | 0.00 | 25 | 1015.1 |
| 20260509051621 | 63 | 32 | 1.0 | 3.0 | 0.00 | 0.00 | 0.00 | 24 | 1014.9 |
| 20260509050629 | 63 | 32 | 0.0 | 2.0 | 0.00 | 0.00 | 0.00 | 25 | 1014.9 |
| 20260509045630 | 63 | 32 | 0.0 | 4.0 | 0.00 | 0.00 | 0.00 | 25 | 1014.7 |
| 20260509044638 | 64 | 65 | 3.0 | 5.0 | 0.00 | 0.00 | 0.00 | 25 | 1014.6 |
| 20260509043624 | 63 | 13 | 2.0 | 5.0 | 0.00 | 0.00 | 0.00 | 26 | 1014.7 |
| 20260509042632 | 63 | 360 | 3.0 | 8.0 | 0.00 | 0.00 | 0.00 | 26 | 1014.6 |
| 20260509041620 | 63 | 64 | 1.0 | 4.0 | 0.00 | 0.00 | 0.00 | 26 | 1014.5 |
| 20260509040629 | 64 | 337 | 2.0 | 3.0 | 0.00 | 0.00 | 0.00 | 25 | 1014.4 |
| 20260509035623 | 65 | 337 | 1.0 | 8.0 | 0.00 | 0.00 | 0.00 | 24 | 1014.4 |
| 20260509034632 | 66 | 44 | 3.0 | 6.0 | 0.00 | 0.00 | 0.00 | 23 | 1014.1 |